Regional Weather Roundup
Issued by NWS

Home | Current Version | Previous Version | Text Only | Print | Product List | Glossary On
Versions: 1 2 3 4 5 6 7 8 9 10 11 12 13 14 15 16 17 18 19 20 21 22 23 24 25 26 27 28 29 30 31 32 33 34 35 36 37 38 39 40 41 42 43 44 45 46 47 48 49 50
000
ASUS43 KDTX 311001
RWRMI
MICHIGAN HOURLY REGIONAL WEATHER ROUNDUP
NATIONAL WEATHER SERVICE DETROIT/PONTIAC MI
600 AM EDT SUN AUG 31 2014

NOTE: "FAIR" INDICATES FEW OR NO CLOUDS BELOW 12,000 FEET WITH NO
SIGNIFICANT WEATHER AND/OR OBSTRUCTION TO VISIBILITY.

MIZ047>049-052>055-059>063-066>070-074>076-081>083-311100-
SOUTHEAST LOWER MICHIGAN

CITY           SKY/WX    TMP DP  RH WIND       PRES   REMARKS
ADRIAN         CLOUDY    71  69  93 VRB3      29.95R FOG
ALMA           PTCLDY    64  63  96 SW3       29.91S FOG
BAD AXE        MOCLDY    67  67 100 W7        29.89R
CARO           CLOUDY    68  67  96 SW7       29.90R
DETROIT CITY   CLOUDY    72  65  78 SW7       29.93R
DETROIT        CLOUDY    68  66  93 S6        29.94R
FLINT          CLOUDY    70  65  84 SW9       29.92S
GROSSE ILE     CLOUDY    72  66  83 SW3       29.92S
HILLSDALE      CLOUDY    71  71 100 SW3       29.95S FOG
HOWELL         CLOUDY    67  66  99 CALM      29.93S FOG

CITY           SKY/WX    TMP DP  RH WIND       PRES   REMARKS
JACKSON        CLOUDY    68  67  96 SW3       29.94S
LAMBERTVILLE   CLOUDY    73  68  83 SW7       29.95S
LANSING        CLOUDY    69  67  93 SW9       29.93S
LAPEER         FAIR      68  65  90 W8        29.92S
MASON          CLOUDY    68  66  94 CALM      29.94R
MONROE         CLOUDY    70  68  94 CALM      29.92S
MT. CLEMENS    CLOUDY    71  65  81 SW7       29.91R
PONTIAC        CLOUDY    68  66  93 W7        29.92S
PORT HOPE        N/A     69  65  86 VRB3      29.85S
PORT HURON     CLOUDY    70  68  94 CALM      29.91S
TRI CITIES     PTCLDY    67  65  93 SW7       29.91R
TROY           CLOUDY    70  66  88 SW3       29.94S
SAGINAW HB     MOCLDY    68  68 100 W7        29.89S
$$
MIZ043>046-050>051-056>058-064>065-071>073-077>080-311100-
SOUTHWEST LOWER MICHIGAN

CITY           SKY/WX    TMP DP  RH WIND       PRES   REMARKS
BATTLE CREEK   MOCLDY    70  67  90 SW9       29.95R
BENTON HARBOR  PTCLDY    66  65  96 S5        29.93S
BIG RAPIDS     CLOUDY    65  65  99 W5        29.91S
COLDWATER      CLOUDY    71  70  96 SW6       29.95R FOG
FREMONT        FOG       64  63  98 CALM      29.92R VSB<1/4
HOLLAND        PTCLDY    71  69  93 SW7       29.93R
GRAND RAPIDS   MOCLDY    70  70 100 S8        29.92S FOG
IONIA          CLOUDY    69  68  98 W5        29.91S FOG
KALAMAZOO      MOCLDY    69  66  90 SW7       29.94S
LUDINGTON      CLOUDY    63  62  97 CALM      29.92R FOG
MARSHALL       CLOUDY    68  68  98 SW5       29.94S FOG
MOUNT PLEASANT CLEAR     64  64  97 SW5       29.90S
MUSKEGON       MOCLDY    66  63  90 CALM      29.92R
SOUTH HAVEN    PTCLDY    69  68  97 CALM      29.93S
$$
MIZ016>042-311100-
NORTHERN LOWER MICHIGAN

CITY           SKY/WX    TMP DP  RH WIND       PRES   REMARKS
ALPENA         LGT RAIN  65  62  90 W8        29.84S
BEAVER ISLAND  CLOUDY    61  60  97 W7        29.88R
BELLAIRE       CLOUDY    64  61  91 SW5       29.89R
CADILLAC       CLOUDY    62  62 100 W6        29.91S
CHARLEVOIX     CLOUDY    63  63 100 SW9       29.91R
FRANKFORT      CLOUDY    65  59  82 W5        29.90S
GAYLORD        CLOUDY    61  60  97 W12G21    29.89R FOG
GRAYLING       CLOUDY    63  63 100 W6        29.90S FOG
HARBOR SPRINGS DRIZZLE   63  62  96 W7        29.87R
HOUGHTON LAKE  CLOUDY    65  62  90 W12       29.91R
MANISTEE       MOCLDY    63  61  94 W3        29.92R
OSCODA         CLOUDY    65  64  97 W8        29.86R
PELLSTON       CLOUDY    62  61  96 W5        29.87R
TRAVERSE CITY  CLOUDY    65  60  84 W5        29.89R
$$
MIZ007>008-015-311100-
EASTERN UPPER MICHIGAN

CITY           SKY/WX    TMP DP  RH WIND       PRES   REMARKS
KINROSS        CLOUDY    61  61 100 W6        29.84R
MACKINAC ISLAN CLOUDY    60  60 100 W8        29.84R
NEWBERRY       CLOUDY    57  57  98 NW5       29.87R
S. S. MARIE    CLOUDY    62  60  93 W5        29.82R
$$
MIZ004>006-011>014-085-311100-
CENTRAL UPPER MICHIGAN

CITY           SKY/WX    TMP DP  RH WIND       PRES   REMARKS
MANISTIQUE     CLOUDY    58  58  99 NW6       29.88R
ESCANABA       CLOUDY    59  55  88 W5        29.91R
MENOMINEE      CLOUDY    61  57  88 CALM      29.92R
SAWYER-GWINN   CLOUDY    57  56  97 CALM      29.93R FOG
$$
MIZ001>003-009>011-084-311100-
WESTERN UPPER MICHIGAN

CITY           SKY/WX    TMP DP  RH WIND       PRES   REMARKS
IRON MOUNTAIN  CLOUDY    56  55  97 NW5       29.92S FOG
HOUGHTON       CLEAR     52  50  93 NW6       29.93R
COPPER HARBOR    N/A     53  51  93 CALM      29.92R
IRONWOOD       CLEAR     50  48  93 CALM      29.91F
$$

ABBREVIATIONS USED IN REMARKS
   TC - TEMPERATURE IN CELSIUS
  WCI - WIND CHILL INDEX
   HX - HEAT INDEX
  VSB - VISIBILITY




USA.gov is the U.S. government's official web portal to all federal, state and local government web resources and services.